Lid_Strength_Index
2 2 1 2 1 0 2 0 -1 -1 -1 -1 -1 -1 -1 -1 -0 2 5 2 1 -2 -1 3 3 4 4 5 5 6 8 9 9 8 7 5 6 5 5 5 4 3 4 3 2
2 2 2 3 2 1 0 2 -1 -1 -1 -0 -1 -1 -1 -1 2 4 1 0 -2 -2 3 5 6 5 6 6 6 6 8 9 7 6 7 5 5 5 6 6 5 4 3 2 2
1 1 1 3 2 2 1 1 0 -1 -1 -1 -0 -1 -1 0 5 4 -2 -2 -3 -1 3 4 4 5 7 6 6 7 9 8 8 7 6 6 6 6 6 7 5 5 4 3 3
1 1 1 1 2 3 3 1 1 -1 -1 -1 -0 -0 -1 2 9 3 -1 -3 -2 2 4 5 5 7 7 8 7 9 8 8 7 6 7 6 5 7 6 6 6 4 3 3 4
1 0 1 1 2 3 4 3 2 0 -1 -1 -0 -0 2 5 5 -0 -2 -1 0 3 5 6 7 7 8 8 7 9 8 7 7 7 7 7 7 7 7 6 6 6 3 4 4
-1 -1 1 1 2 2 5 3 2 1 -0 -1 -0 -1 4 8 2 -1 -0 2 3 4 5 5 6 6 7 8 8 7 7 7 7 7 7 7 8 8 7 6 7 4 3 3 3
-1 -2 -1 0 1 2 3 3 3 2 1 -0 -0 1 5 6 3 -1 2 3 3 3 5 5 5 6 6 8 7 7 9 8 8 7 8 7 9 8 7 7 7 6 4 4 3
-1 -1 -1 -1 -0 0 1 3 4 2 1 0 -1 1 7 4 2 3 3 4 3 4 4 4 4 6 6 6 7 8 8 10 8 7 8 8 9 8 7 7 7 7 7 4 4
-1 -1 -1 -1 -1 -0 1 3 5 2 1 0 1 3 7 3 6 4 4 5 4 4 4 5 5 6 7 8 9 9 10 10 9 7 8 8 8 8 8 7 7 7 7 7 5
-1 -1 -1 -1 -1 0 1 2 3 2 2 1 1 6 6 7 5 5 4 4 5 5 6 6 7 8 8 9 13 11 11 10 9 9 9 9 8 8 8 8 7 7 7 7 7
-1 -1 -1 -1 -1 0 2 4 5 6 6 8 6 7 6 5 4 6 5 5 5 6 9 8 10 11 10 8 8 8 9 9 9 9 9 9 8 8 9 8 8 8 7 7 7
-1 -1 -1 -1 -0 -0 3 6 7 6 10 6 5 4 5 4 7 6 4 7 8 10 8 10 11 8 7 8 9 10 10 10 10 9 9 9 9 8 9 9 9 8 8 8 7
-1 -1 -1 -1 -1 1 5 6 4 5 9 8 6 5 6 5 7 7 5 7 9 10 10 10 10 9 9 10 10 10 10 10 10 10 9 10 9 10 10 9 9 9 9 8 8
-1 -1 -1 -1 1 2 5 4 4 5 12 11 9 6 5 5 7 5 4 6 9 10 9 9 10 10 10 10 9 11 9 9 10 10 12 10 13 11 10 10 10 9 9 9 9
-1 -1 -1 -1 1 4 4 4 4 6 20 9 9 4 5 7 7 7 4 6 10 10 10 11 12 11 11 10 9 10 9 9 10 11 11 11 12 10 11 11 10 9 9 9 9
-1 -1 -1 -0 0 1 2 4 6 13 19 12 9 9 9 7 8 7 7 6 7 9 9 10 9 9 9 10 9 10 10 10 10 11 15 11 12 11 11 10 9 9 9 9 9
-1 -1 -1 -1 3 1 3 6 14 18 10 13 11 10 10 10 9 8 9 10 11 13 13 11 11 9 9 11 10 9 10 16 17 18 16 14 13 11 11 10 9 10 10 9 9
-1 -1 -1 -0 -1 -0 3 10 19 14 13 9 9 10 11 10 9 9 10 11 8 9 11 13 15 11 9 9 11 11 10 16 20 18 15 14 14 12 11 10 9 9 9 10 9
-1 -0 1 -0 -1 0 6 14 15 14 12 11 10 13 12 10 10 10 10 10 9 9 11 13 13 11 10 9 9 11 13 11 14 16 15 14 13 12 11 12 11 11 10 10 10
1 2 2 -0 -1 3 9 12 13 11 11 12 14 11 14 12 11 11 11 8 9 8 8 10 14 11 11 9 10 10 10 14 13 18 17 16 15 13 14 13 12 12 11 11 11
2 6 1 -1 0 6 12 11 11 9 10 12 13 12 11 12 11 11 11 9 8 8 8 9 11 13 11 12 12 12 12 12 11 12 16 16 14 11 11 11 12 12 12 12 11
3 9 1 -0 9 9 11 9 7 9 9 10 10 11 10 10 12 11 11 9 7 7 10 9 10 14 12 11 10 9 11 11 13 15 14 13 13 11 11 9 11 12 12 12 11
6 6 1 2 12 11 9 9 8 10 9 10 11 9 8 10 12 11 10 8 7 7 9 9 11 15 14 12 11 12 11 10 11 11 14 14 13 12 11 10 11 12 12 12 12
6 10 6 5 6 10 10 10 10 8 9 8 9 8 10 10 9 11 11 9 8 8 6 7 10 12 14 13 11 13 12 11 11 13 13 13 12 12 11 11 11 11 12 12 13
5 8 8 11 10 9 9 10 11 11 8 8 9 10 10 12 11 11 10 10 9 8 8 9 11 10 10 11 10 11 11 11 12 11 12 11 12 10 10 10 10 11 12 13 13
7 8 7 9 9 10 10 11 11 11 12 11 11 10 10 12 12 13 11 10 11 9 9 9 14 11 13 11 11 12 11 10 10 10 10 11 12 11 9 9 10 11 12 13 13
3 4 8 9 10 11 10 10 11 11 10 8 9 10 11 10 8 8 7 8 9 11 11 12 13 14 15 12 13 15 11 11 10 9 9 12 10 11 11 11 11 11 12 13 13